[[{"header":{"parameterUnit":"m.s-1","parameterCategory":2,"la1":30.2991,"la2":30.254,"lo1":-89.0895,"lo2":-89.0444,"dy":0.0017,"dx":0.0017,"nx":28,"ny":28,"refTime":"2024-07-03T21:00:00:Z","depth":"0","parameterNumber":2,"parameterNumberName":"U-component_of_CURRENTS"},"data":[0,0,0,0,0,0,0,0,0,0,0,0,0,0,0,0,0,0,0,0,0,0,0,0,0,0,0,0,0,0,0,0,0,0,0,0,0,0,0,0,0,0,0,0,0,0,0,0,0,0,0,0,0,0,0,0,0,0,0.1844,0.1844,0,0.1837,0.1837,0.1837,0.1819,0.1819,0.1819,0.1819,0.1821,0.1821,0.1822,0,0,0,0,0,0,0,0,0,0,0,0,0,0.1865,0.1864,0.1844,0.1844,0.1844,0.1837,0.1837,0.1837,0.1819,0.1819,0.1819,0.1818,0.1821,0.1821,0.1822,0,0,0,0,0,0,0,0,0,0,0,0,0,0.1855,0.1864,0.1844,0.1835,0.1835,0.1837,0.1837,0.1837,0.182,0.1819,0.1819,0.1818,0.1821,0.1821,0.1822,0.1833,0,0,0.1823,0.1823,0,0,0,0,0,0,0,0,0.1856,0.1854,0.1837,0.1836,0.1835,0.183,0.1845,0.1836,0.182,0.1824,0.1819,0.1818,0.1826,0.1826,0.1824,0.1833,0.1833,0.1823,0.1823,0.1824,0.1824,0,0,0,0,0,0,0,0.1856,0.1855,0.184,0.1837,0.1836,0.184,0.1838,0.1843,0.1827,0.1824,0.1823,0.1824,0.1825,0.1823,0.1824,0.1833,0.1823,0.1824,0.1824,0.1824,0.1878,0.1879,0,0,0,0,0,0,0.1859,0.1855,0.184,0.184,0.1846,0.184,0.1837,0.1831,0.1826,0.1825,0.1824,0.1823,0.1823,0.1823,0.1824,0.1845,0.1824,0.1824,0.1824,0.1877,0.1879,0.188,0,0,0,0,0,0,0.1859,0.1857,0.1841,0.1849,0.1847,0.184,0.1833,0.1831,0.1829,0.1827,0.1826,0.1824,0.1822,0.1823,0.1836,0.1845,0.1824,0.1825,0.1876,0.1878,0.1879,0.1882,0,0,0,0,0,0,0.186,0.1857,0.1855,0.1849,0.1847,0.1843,0.1833,0.1831,0.1831,0.183,0.1827,0.1826,0.1822,0.1835,0.1836,0.1845,0.1825,0.1874,0.1877,0.1879,0.1881,0.1884,0.1887,0,0,0,0,0,0.186,0.1857,0.1854,0.1853,0.1843,0.1843,0.1843,0.1836,0.1832,0.1832,0.1836,0.1826,0.185,0.1836,0.1837,0.1846,0.1873,0.1876,0.1878,0.1879,0.1883,0.1886,0,0,0,0,0,0,0.1864,0.1855,0.1852,0.1845,0.1846,0.1841,0.1841,0.1839,0.1841,0.1841,0.1837,0.1838,0.186,0.1855,0.184,0.1872,0.1862,0.1865,0.1863,0.1866,0.1869,0.188,0.1825,0,0,0,0,0,0.1864,0.1858,0.1855,0.1851,0.1851,0.1848,0.1848,0.1845,0.1846,0.1846,0.1846,0.1854,0.1873,0.1869,0.1887,0.1893,0.1909,0.1903,0.1906,0.1908,0.192,0.1972,0.1981,0.1888,0.1888,0.1888,0,0,0.1864,0.1859,0.1855,0.1851,0.1849,0.1849,0.1846,0.1847,0.185,0.1847,0.1853,0.1871,0.1882,0.1898,0.1906,0.189,0.1938,0.1911,0.1913,0.1924,0.1976,0.1985,0.1993,0.189,0.189,0.189,0,0,0.186,0.1857,0.185,0.1852,0.1853,0.1854,0.1856,0.1855,0.1858,0.1869,0.1879,0.1905,0.191,0.1927,0.1935,0.1967,0.1965,0.1966,0.1971,0.2021,0.2029,0.2036,0.2042,0.205,0.1951,0.1951,0.1951,0,0.1861,0.1848,0.1851,0.1847,0.1847,0.1856,0.1852,0.1861,0.1866,0.1876,0.1872,0.192,0.1929,0.1962,0.1973,0.1974,0.1986,0.195,0.2024,0.2032,0.204,0.2045,0.2053,0.1952,0.1952,0.1952,0.1952,0,0.185,0.1843,0.1842,0.1838,0.1843,0.1842,0.1854,0.1865,0.1872,0.1884,0.1924,0.1947,0.1974,0.1982,0.1983,0.2038,0.2024,0.2033,0.2012,0.2049,0.2051,0.206,0.1953,0.1952,0.1952,0.1952,0,0,0.1836,0.1833,0.1831,0.1826,0.1836,0.1836,0.1853,0.187,0.1888,0.1908,0.1939,0.1979,0.2,0.2014,0.2027,0.2063,0.2117,0.2063,0.2066,0.2062,0.2198,0.2034,0.2028,0.2138,0.214,0.2142,0.2168,0,0.1823,0.181,0.1816,0.181,0.1803,0.1823,0.1842,0.1865,0.1889,0.1926,0.1968,0.2009,0.2008,0.2029,0.2068,0.2125,0.2146,0.2107,0.2169,0.2171,0.2016,0.2035,0.1928,0.193,0.2177,0.2178,0.2179,0,0.1802,0.1796,0.1783,0.1793,0.1794,0.1801,0.1831,0.1849,0.1909,0.1936,0.1983,0.2022,0.2089,0.2086,0.2179,0.2154,0.2175,0.2205,0.2207,0.2064,0.2025,0.194,0.1937,0.1878,0.2193,0.2192,0.2191,0,0.1775,0.1772,0.1759,0.1759,0.1777,0.1785,0.1801,0.1849,0.1875,0.1948,0.1986,0.206,0.2107,0.2169,0.2209,0.221,0.2299,0.2309,0.2173,0.2161,0.2086,0.2062,0.203,0.237,0.237,0.2369,0.2369,0,0.1749,0.1739,0.1745,0.1738,0.1741,0.1764,0.1786,0.1818,0.1881,0.1921,0.1989,0.2039,0.2136,0.2187,0.2225,0.2205,0.2307,0.2175,0.2163,0.2077,0.2053,0.2011,0.1976,0.237,0.237,0.237,0.237,0,0.1716,0.1718,0.1705,0.1719,0.1724,0.1726,0.1767,0.1792,0.1855,0.1913,0.1942,0.2042,0.209,0.2139,0.2232,0.2197,0.2129,0.218,0.2039,0.2006,0.1784,0.1752,0.1632,0.1605,0.204,0.2036,0.2033,0,0.1694,0.1683,0.1684,0.1681,0.1685,0.1697,0.1713,0.177,0.1801,0.1907,0.1937,0.1999,0.2019,0.2051,0.2018,0.2003,0.1985,0.1873,0.1848,0.1743,0.1703,0.1651,0.1638,0.1759,0.1754,0.175,0.1746,0,0.166,0.1662,0.1656,0.1648,0.1652,0.1661,0.1687,0.171,0.1784,0.183,0.1885,0.1909,0.1899,0.1829,0.1768,0.1751,0.1737,0.1777,0.1747,0.1526,0.1396,0.1373,0.1748,0.1709,0.1712,0.1715,0.1717,0.1719,0.1638,0.1629,0.1624,0.1609,0.1615,0.162,0.161,0.1648,0.1678,0.1711,0.1784,0.1759,0.1703,0.1591,0.1547,0.1371,0.1429,0.1325,0.1311,0.1281,0.1192,0.1427,0.1314,0.1315,0.1316,0.1317,0.1318,0,0.1603,0.1595,0.1586,0.1566,0.1548,0.1568,0.1585,0.1565,0.1561,0.1584,0.1588,0.1492,0.137,0.1295,0.1108,0.0976,0.097,0.0913,0.0883,0.0913,0.1202,0.1125,0.0869,0.0869,0.0869,0.0869,0.0869,0.0869,0.1587,0.1559,0.1546,0.1496,0.1482,0.1444,0.1436,0.1412,0.1409,0.1331,0.1253,0.1236,0.115,0.0923,0.0723,0.0683,0.0655,0.0515,0.0586,0.084,0.0881,0.092,0.0843,0.0531,0.0531,0.0295,0.0293,0.0291]},{"header":{"parameterUnit":"m.s-1","parameterCategory":2,"la1":30.2991,"la2":30.254,"lo1":-89.0895,"lo2":-89.0444,"dy":0.0017,"dx":0.0017,"nx":28,"ny":28,"refTime":"2024-07-03T21:00:00:Z","depth":"0","parameterNumber":3,"parameterNumberName":"V-component_of_CURRENTS"},"data":[0,0,0,0,0,0,0,0,0,0,0,0,0,0,0,0,0,0,0,0,0,0,0,0,0,0,0,0,0,0,0,0,0,0,0,0,0,0,0,0,0,0,0,0,0,0,0,0,0,0,0,0,0,0,0,0,0,0,0.0371,0.0371,0,0.0387,0.0387,0.0387,0.0383,0.0383,0.0383,0.0383,0.0389,0.0389,0.039,0,0,0,0,0,0,0,0,0,0,0,0,0,0.0329,0.0329,0.0371,0.0371,0.0371,0.0387,0.0387,0.0387,0.0384,0.0383,0.0383,0.0383,0.0389,0.0389,0.039,0,0,0,0,0,0,0,0,0,0,0,0,0,0.0345,0.033,0.0371,0.0372,0.0373,0.0387,0.0387,0.0387,0.0384,0.0383,0.0383,0.0383,0.0389,0.0389,0.039,0.0399,0,0,0.0391,0.0392,0,0,0,0,0,0,0,0,0.0344,0.0347,0.0372,0.0372,0.0373,0.0384,0.0374,0.0391,0.0384,0.0378,0.0383,0.0382,0.0387,0.0388,0.039,0.04,0.04,0.0391,0.0392,0.0392,0.0392,0,0,0,0,0,0,0,0.0343,0.0346,0.0376,0.0372,0.0373,0.0369,0.0371,0.0377,0.0383,0.0379,0.0379,0.0382,0.0387,0.039,0.039,0.04,0.0391,0.0392,0.0392,0.0392,0.0424,0.0424,0,0,0,0,0,0,0.0344,0.0345,0.0376,0.0377,0.0358,0.037,0.0372,0.038,0.0384,0.0384,0.0383,0.0382,0.0389,0.039,0.039,0.0417,0.0392,0.0392,0.0393,0.0423,0.0424,0.0425,0,0,0,0,0,0,0.0343,0.0347,0.0375,0.0362,0.0365,0.0372,0.038,0.038,0.0384,0.0387,0.0387,0.0385,0.0389,0.039,0.0401,0.0417,0.0393,0.0393,0.0423,0.0424,0.0424,0.0461,0,0,0,0,0,0,0.0342,0.0347,0.0351,0.0362,0.0366,0.0387,0.038,0.0381,0.0387,0.0386,0.0389,0.0389,0.0389,0.04,0.0402,0.0417,0.0394,0.0422,0.0423,0.0424,0.0459,0.0463,0.0466,0,0,0,0,0,0.034,0.0351,0.0351,0.0355,0.0372,0.0388,0.039,0.0392,0.0387,0.0393,0.0395,0.0389,0.0407,0.0401,0.0403,0.0419,0.0422,0.0423,0.0424,0.0457,0.0462,0.0466,0,0,0,0,0,0,0.0332,0.0352,0.0352,0.0367,0.0377,0.0387,0.0394,0.0394,0.04,0.04,0.0398,0.0399,0.0416,0.041,0.0403,0.0429,0.0413,0.0414,0.0438,0.0442,0.0446,0.0456,0.0394,0,0,0,0,0,0.0334,0.0348,0.0361,0.0373,0.0379,0.0386,0.0391,0.0395,0.0402,0.0404,0.0408,0.0412,0.0422,0.0425,0.0433,0.0446,0.0441,0.0456,0.046,0.0463,0.0472,0.0479,0.0484,0.0428,0.0428,0.0428,0,0,0.0333,0.0346,0.0353,0.0372,0.038,0.0398,0.0388,0.0402,0.0417,0.0405,0.0425,0.0426,0.0429,0.0447,0.0454,0.0444,0.0474,0.0464,0.0467,0.0474,0.048,0.0486,0.0491,0.0429,0.0429,0.0429,0,0,0.0344,0.0351,0.0368,0.038,0.0397,0.0406,0.0411,0.0424,0.043,0.0448,0.0446,0.0458,0.0467,0.0478,0.0483,0.0509,0.0494,0.0505,0.0532,0.0538,0.0543,0.0547,0.0539,0.0542,0.0505,0.0505,0.0505,0,0.0341,0.0367,0.0374,0.0395,0.041,0.0412,0.0434,0.0443,0.0458,0.047,0.0459,0.0487,0.0486,0.0518,0.0524,0.052,0.0512,0.0516,0.0543,0.0547,0.0551,0.0542,0.0545,0.0507,0.0507,0.0507,0.0506,0,0.0367,0.0387,0.0399,0.0429,0.0444,0.0464,0.048,0.0494,0.0499,0.0509,0.0537,0.0538,0.0556,0.0555,0.0548,0.0576,0.0558,0.0549,0.0534,0.0559,0.0547,0.055,0.051,0.0509,0.0509,0.0508,0,0,0.0367,0.041,0.0414,0.0437,0.0466,0.0484,0.0511,0.0542,0.0567,0.0574,0.0608,0.0619,0.0617,0.0622,0.0615,0.0618,0.0631,0.0593,0.0592,0.0587,0.0633,0.0633,0.0635,0.0623,0.0624,0.0625,0.0611,0,0.0387,0.0433,0.0449,0.0495,0.0521,0.0537,0.0565,0.0591,0.0607,0.0639,0.0644,0.0671,0.0643,0.0655,0.0654,0.0647,0.064,0.0635,0.0608,0.0607,0.0607,0.064,0.0693,0.0687,0.0614,0.0614,0.0614,0,0.0411,0.0441,0.0487,0.0539,0.0552,0.0577,0.0628,0.0655,0.0693,0.0705,0.0727,0.073,0.075,0.0716,0.071,0.0705,0.0671,0.0653,0.0652,0.0644,0.0613,0.0652,0.0694,0.073,0.0618,0.0618,0.0617,0,0.0417,0.047,0.051,0.0527,0.0581,0.0606,0.0635,0.0675,0.071,0.0751,0.0782,0.0793,0.0813,0.0781,0.0743,0.0727,0.0725,0.0699,0.0663,0.0662,0.0699,0.07,0.0779,0.0685,0.0685,0.0685,0.0685,0,0.0438,0.0471,0.0517,0.0541,0.0595,0.0623,0.0681,0.0709,0.076,0.0819,0.0819,0.0865,0.083,0.0825,0.0769,0.0734,0.0745,0.068,0.0668,0.0712,0.0714,0.0739,0.0738,0.0684,0.0685,0.0685,0.0685,0,0.0443,0.0472,0.0522,0.0579,0.0601,0.0639,0.0712,0.0757,0.0797,0.0876,0.0895,0.0928,0.0926,0.0876,0.0833,0.0781,0.0764,0.0711,0.0759,0.0753,0.0751,0.0749,0.0779,0.0835,0.0678,0.0678,0.0678,0,0.0451,0.0477,0.0545,0.0578,0.0607,0.0666,0.0714,0.077,0.0825,0.0921,0.0967,0.0989,0.1022,0.0957,0.0876,0.0789,0.0782,0.0765,0.0747,0.0776,0.0765,0.0751,0.0796,0.0804,0.0805,0.0806,0.0807,0,0.0466,0.0487,0.0528,0.0595,0.0649,0.0715,0.0789,0.0841,0.0924,0.1001,0.1095,0.1129,0.1084,0.1044,0.0925,0.0862,0.0829,0.0779,0.0812,0.088,0.087,0.091,0.0772,0.0815,0.0814,0.0813,0.0813,0.0813,0.0474,0.0501,0.0553,0.0616,0.0679,0.076,0.0823,0.0917,0.1023,0.1153,0.1178,0.126,0.1206,0.1064,0.0984,0.0908,0.0879,0.0886,0.0881,0.0863,0.0931,0.0802,0.0828,0.0827,0.0827,0.0826,0.0826,0,0.0481,0.0515,0.0573,0.0651,0.0717,0.0752,0.0873,0.0955,0.1094,0.122,0.1309,0.1377,0.1298,0.1198,0.108,0.1037,0.1026,0.1011,0.1029,0.1072,0.0969,0.0991,0.1053,0.1053,0.1053,0.1053,0.1053,0.1053,0.0486,0.0531,0.0561,0.0663,0.0722,0.0821,0.0892,0.1035,0.1156,0.135,0.1452,0.1516,0.1518,0.1254,0.1169,0.1145,0.119,0.1132,0.1151,0.1097,0.1086,0.1075,0.1099,0.1181,0.1181,0.1299,0.13,0.1301]}],[{"header":{"parameterUnit":"m.s-1","parameterCategory":2,"la1":30.2991,"la2":30.254,"lo1":-89.0895,"lo2":-89.0444,"dy":0.0017,"dx":0.0017,"nx":28,"ny":28,"refTime":"2024-07-03T21:00:00:Z","depth":"2","parameterNumber":2,"parameterNumberName":"U-component_of_CURRENTS"},"data":[0,0,0,0,0,0,0,0,0,0,0,0,0,0,0,0,0,0,0,0,0,0,0,0,0,0,0,0,0,0,0,0,0,0,0,0,0,0,0,0,0,0,0,0,0,0,0,0,0,0,0,0,0,0,0,0,0,0,0.1654,0.1654,0,0.1653,0.1653,0.1653,0.1648,0.1648,0.1648,0.1648,0.1658,0.1658,0.1658,0,0,0,0,0,0,0,0,0,0,0,0,0,0.167,0.167,0.1654,0.1654,0.1654,0.1653,0.1653,0.1653,0.1648,0.1648,0.1648,0.1648,0.1658,0.1658,0.1658,0,0,0,0,0,0,0,0,0,0,0,0,0,0.1664,0.167,0.1654,0.1652,0.1652,0.1653,0.1653,0.1653,0.1648,0.1648,0.1648,0.1648,0.1658,0.1658,0.1659,0.1661,0,0,0.166,0.166,0,0,0,0,0,0,0,0,0.1665,0.1664,0.1653,0.1653,0.1653,0.1652,0.1662,0.1656,0.1648,0.1648,0.1648,0.1648,0.1658,0.1658,0.1656,0.1662,0.1662,0.166,0.166,0.166,0.166,0,0,0,0,0,0,0,0.1665,0.1664,0.1652,0.1653,0.1653,0.1658,0.1657,0.1661,0.1652,0.1648,0.1648,0.165,0.1657,0.1656,0.1656,0.1662,0.166,0.166,0.166,0.1661,0.1711,0.1712,0,0,0,0,0,0,0.1666,0.1664,0.1652,0.1652,0.166,0.1658,0.1657,0.1651,0.1652,0.1653,0.165,0.165,0.1655,0.1656,0.1657,0.1685,0.166,0.1661,0.1661,0.171,0.1711,0.1712,0,0,0,0,0,0,0.1667,0.1665,0.1653,0.166,0.1659,0.1658,0.1651,0.1651,0.1657,0.1654,0.1654,0.1657,0.1655,0.1656,0.167,0.1684,0.1661,0.1661,0.1709,0.171,0.1712,0.1725,0,0,0,0,0,0,0.1667,0.1665,0.1666,0.1659,0.1658,0.1657,0.1652,0.1651,0.1658,0.1658,0.166,0.166,0.1655,0.167,0.1671,0.1684,0.1661,0.1707,0.1709,0.1711,0.1723,0.1727,0.173,0,0,0,0,0,0.1667,0.1666,0.1666,0.1665,0.1657,0.1658,0.1658,0.1656,0.1658,0.1662,0.1667,0.166,0.1684,0.1671,0.1672,0.1685,0.1706,0.1709,0.1711,0.1721,0.1726,0.173,0,0,0,0,0,0,0.1673,0.1665,0.1665,0.1661,0.1663,0.1657,0.1661,0.1663,0.1669,0.1672,0.1669,0.167,0.1696,0.1689,0.1675,0.1709,0.1696,0.1699,0.1704,0.1708,0.1711,0.1718,0.1662,0,0,0,0,0,0.1675,0.1671,0.1668,0.1667,0.1668,0.1668,0.167,0.167,0.1673,0.1676,0.1679,0.1688,0.1705,0.1705,0.172,0.1727,0.1739,0.174,0.1744,0.1746,0.1755,0.1799,0.1807,0.172,0.172,0.172,0,0,0.1678,0.1673,0.1671,0.1668,0.1669,0.167,0.1669,0.1674,0.1679,0.1677,0.1689,0.1706,0.1715,0.1732,0.1742,0.1725,0.1774,0.175,0.1752,0.1759,0.1803,0.1811,0.1818,0.1722,0.1722,0.1722,0,0,0.1676,0.1677,0.1672,0.1674,0.1678,0.1679,0.1683,0.1686,0.1692,0.1705,0.1716,0.1742,0.175,0.1764,0.177,0.1802,0.1802,0.1806,0.1813,0.1856,0.1864,0.187,0.1878,0.1886,0.1794,0.1794,0.1794,0,0.1682,0.167,0.1673,0.1671,0.1673,0.1684,0.1682,0.1692,0.1701,0.1712,0.1712,0.1759,0.1768,0.1796,0.1809,0.181,0.1823,0.1792,0.186,0.1867,0.1874,0.1881,0.1889,0.1795,0.1795,0.1794,0.1794,0,0.1672,0.1669,0.1669,0.1667,0.1673,0.1675,0.1687,0.17,0.1713,0.1726,0.1766,0.1786,0.1812,0.1822,0.1823,0.1874,0.1864,0.1869,0.1847,0.1883,0.1888,0.1896,0.1796,0.1796,0.1795,0.1795,0,0,0.1664,0.1662,0.1662,0.1659,0.167,0.1671,0.1689,0.1706,0.1725,0.1749,0.178,0.1818,0.1841,0.1853,0.1865,0.1897,0.1951,0.19,0.1902,0.1902,0.2025,0.1877,0.1871,0.197,0.1972,0.1973,0.2002,0,0.1655,0.1644,0.1649,0.1648,0.1643,0.1663,0.168,0.1704,0.1729,0.1767,0.1805,0.1847,0.1848,0.1871,0.1905,0.196,0.1977,0.1941,0.1995,0.1996,0.1856,0.1877,0.1715,0.1715,0.201,0.2011,0.2012,0,0.1637,0.1633,0.1624,0.1634,0.1636,0.1645,0.1675,0.1693,0.1751,0.1777,0.1823,0.1862,0.1926,0.1923,0.2009,0.1989,0.2007,0.2032,0.2034,0.1899,0.1863,0.1732,0.1719,0.2026,0.2025,0.2024,0.2023,0,0.1614,0.1614,0.1605,0.1607,0.1624,0.1634,0.1652,0.1698,0.1722,0.1793,0.1829,0.19,0.1948,0.2002,0.2041,0.2043,0.2121,0.213,0.2002,0.1991,0.1864,0.1837,0.2178,0.2178,0.2178,0.2177,0.2177,0,0.1592,0.1586,0.1596,0.159,0.1597,0.1619,0.1643,0.1674,0.1734,0.1772,0.1839,0.1879,0.1976,0.2022,0.2056,0.2037,0.2129,0.2004,0.1993,0.1858,0.1832,0.2115,0.2108,0.2179,0.2178,0.2178,0.2178,0,0.1564,0.1568,0.156,0.1576,0.1582,0.159,0.163,0.1652,0.1714,0.177,0.1799,0.1888,0.1935,0.1984,0.2065,0.2033,0.2049,0.2009,0.1818,0.1781,0.189,0.1883,0.1893,0.1888,0.1884,0.188,0.1877,0,0.1545,0.1537,0.1544,0.1543,0.155,0.1565,0.1581,0.1636,0.1663,0.1761,0.1788,0.185,0.1863,0.1891,0.1854,0.1841,0.1933,0.1665,0.1632,0.1875,0.1863,0.1863,0.1862,0.1476,0.147,0.1465,0.1461,0,0.1513,0.152,0.1516,0.1513,0.1521,0.1528,0.1556,0.1571,0.1642,0.1681,0.1723,0.1742,0.1734,0.1633,0.1582,0.1556,0.1655,0.1559,0.1896,0.1549,0.1477,0.1467,0.1481,0.1418,0.1422,0.1425,0.1428,0.1429,0.1495,0.1487,0.1486,0.1477,0.1485,0.1485,0.1471,0.1501,0.1519,0.1542,0.1606,0.1559,0.1543,0.1368,0.1296,0.1218,0.1351,0.1298,0.1316,0.1339,0.1261,0.1183,0.1053,0.1055,0.1057,0.1059,0.106,0,0.1461,0.1457,0.1449,0.1432,0.1413,0.1439,0.1447,0.1409,0.1389,0.1404,0.1396,0.1226,0.1117,0.1096,0.0908,0.0862,0.0888,0.0815,0.0868,0.091,0.0947,0.0853,0.0536,0.0535,0.0534,0.0532,0,0,0.1446,0.142,0.1407,0.1357,0.1348,0.1309,0.1297,0.1246,0.1225,0.114,0.1077,0.1115,0.1094,0.0849,0.0772,0.0637,0.0781,0.0586,0.1005,0.1114,0.1151,0.1213,0.1111,0,0,0,0,0]},{"header":{"parameterUnit":"m.s-1","parameterCategory":2,"la1":30.2991,"la2":30.254,"lo1":-89.0895,"lo2":-89.0444,"dy":0.0017,"dx":0.0017,"nx":28,"ny":28,"refTime":"2024-07-03T21:00:00:Z","depth":"2","parameterNumber":3,"parameterNumberName":"V-component_of_CURRENTS"},"data":[0,0,0,0,0,0,0,0,0,0,0,0,0,0,0,0,0,0,0,0,0,0,0,0,0,0,0,0,0,0,0,0,0,0,0,0,0,0,0,0,0,0,0,0,0,0,0,0,0,0,0,0,0,0,0,0,0,0,0.0215,0.0216,0,0.023,0.023,0.023,0.0231,0.0231,0.0231,0.0231,0.0237,0.0238,0.0238,0,0,0,0,0,0,0,0,0,0,0,0,0,0.0178,0.0179,0.0215,0.0216,0.0216,0.023,0.023,0.023,0.0231,0.0231,0.0231,0.0231,0.0237,0.0238,0.0238,0,0,0,0,0,0,0,0,0,0,0,0,0,0.0193,0.0179,0.0215,0.0219,0.0219,0.023,0.023,0.023,0.0231,0.0231,0.0231,0.0231,0.0237,0.0238,0.0238,0.0242,0,0,0.0239,0.0239,0,0,0,0,0,0,0,0,0.0192,0.0194,0.0218,0.0219,0.0219,0.0229,0.0219,0.0234,0.0231,0.0226,0.0231,0.0231,0.0235,0.0235,0.0237,0.0243,0.0243,0.0239,0.0239,0.0239,0.024,0,0,0,0,0,0,0,0.0191,0.0193,0.022,0.0218,0.0219,0.0216,0.0218,0.0222,0.023,0.0226,0.0227,0.023,0.0235,0.0237,0.0237,0.0243,0.0239,0.0239,0.024,0.024,0.0264,0.0264,0,0,0,0,0,0,0.0192,0.0192,0.022,0.0221,0.0206,0.0217,0.0219,0.0226,0.023,0.0231,0.023,0.023,0.0236,0.0237,0.0237,0.0265,0.0239,0.024,0.024,0.0264,0.0264,0.0265,0,0,0,0,0,0,0.0191,0.0194,0.0219,0.0207,0.021,0.0218,0.0225,0.0226,0.0232,0.0233,0.0233,0.0235,0.0236,0.0237,0.0247,0.0264,0.024,0.024,0.0263,0.0264,0.0264,0.0306,0,0,0,0,0,0,0.019,0.0194,0.0199,0.0208,0.0211,0.0231,0.0225,0.0226,0.0234,0.0234,0.0238,0.0238,0.0236,0.0246,0.0247,0.0264,0.0241,0.0263,0.0263,0.0264,0.0304,0.0308,0.0311,0,0,0,0,0,0.0188,0.0198,0.0199,0.0202,0.0218,0.0231,0.0233,0.0237,0.0235,0.0241,0.0243,0.0238,0.0252,0.0247,0.0248,0.0266,0.0262,0.0263,0.0264,0.0302,0.0307,0.0311,0,0,0,0,0,0,0.0183,0.02,0.0201,0.0215,0.0224,0.0232,0.0239,0.024,0.0247,0.0248,0.0245,0.0246,0.0262,0.0255,0.025,0.0274,0.0256,0.0257,0.0285,0.0289,0.0293,0.0302,0.0241,0,0,0,0,0,0.0185,0.0198,0.0209,0.022,0.0226,0.0233,0.0238,0.0242,0.0249,0.0252,0.0256,0.0258,0.0266,0.027,0.0274,0.0287,0.0281,0.0298,0.0302,0.0305,0.0312,0.0317,0.0322,0.0268,0.0268,0.0268,0,0,0.0185,0.0197,0.0203,0.0221,0.0228,0.0245,0.0236,0.025,0.0265,0.0252,0.0273,0.0273,0.0272,0.0289,0.0295,0.0286,0.0316,0.0306,0.0309,0.0315,0.0319,0.0324,0.0329,0.0268,0.0268,0.0268,0,0,0.0197,0.0204,0.022,0.0232,0.0248,0.0255,0.026,0.0273,0.0279,0.0296,0.0293,0.0304,0.0312,0.032,0.0323,0.0347,0.0336,0.0346,0.0374,0.0379,0.0384,0.0388,0.0384,0.0388,0.0348,0.0348,0.0348,0,0.0197,0.022,0.0226,0.0245,0.026,0.0262,0.0283,0.0291,0.0306,0.0317,0.0308,0.0332,0.0329,0.0356,0.0364,0.0358,0.0353,0.0359,0.0385,0.0388,0.0392,0.0387,0.0391,0.035,0.035,0.0349,0.0349,0,0.0221,0.0241,0.0252,0.0281,0.0294,0.0314,0.0327,0.0341,0.0348,0.0358,0.0383,0.0381,0.0397,0.0396,0.0388,0.0415,0.0401,0.0389,0.0376,0.04,0.0393,0.0396,0.0353,0.0352,0.0351,0.0351,0,0,0.0223,0.0263,0.0268,0.029,0.0317,0.0334,0.0359,0.0387,0.0411,0.0419,0.0452,0.0459,0.0459,0.0461,0.0454,0.0456,0.0473,0.0435,0.0434,0.0436,0.0479,0.048,0.0482,0.0465,0.0466,0.0467,0.0464,0,0.0244,0.0287,0.0302,0.0346,0.0371,0.0385,0.0411,0.0435,0.0451,0.0482,0.0484,0.0511,0.0483,0.0497,0.0495,0.0487,0.0483,0.0475,0.0452,0.0451,0.0452,0.0486,0.0464,0.0461,0.0467,0.0467,0.0467,0,0.0267,0.0296,0.034,0.0388,0.0401,0.0426,0.0474,0.0499,0.0535,0.0547,0.0569,0.0572,0.0591,0.0557,0.0551,0.0548,0.0517,0.0498,0.0497,0.0487,0.0457,0.0437,0.0465,0.0472,0.0471,0.0471,0.0471,0,0.0275,0.0325,0.0364,0.038,0.043,0.0455,0.0485,0.0522,0.0556,0.0596,0.0627,0.0636,0.0658,0.0626,0.0589,0.0574,0.0573,0.0547,0.0512,0.0511,0.0483,0.0479,0.0531,0.0531,0.0531,0.0531,0.0531,0,0.0295,0.0327,0.0372,0.0396,0.0449,0.0476,0.0533,0.056,0.061,0.0668,0.0667,0.071,0.0677,0.0672,0.0617,0.0584,0.0595,0.0529,0.0518,0.0496,0.0493,0.0493,0.0489,0.0531,0.0531,0.0531,0.0531,0,0.0301,0.0329,0.0378,0.0434,0.0456,0.0496,0.0568,0.0611,0.0652,0.073,0.0751,0.0778,0.0779,0.073,0.0687,0.0634,0.059,0.0565,0.054,0.0526,0.0514,0.0512,0.0538,0.0538,0.0538,0.0538,0.0538,0,0.0309,0.0334,0.0403,0.0437,0.0466,0.0526,0.0574,0.0629,0.0683,0.0776,0.0822,0.0845,0.0872,0.0808,0.0719,0.0635,0.0604,0.0547,0.0515,0.0532,0.0518,0.0516,0.0513,0.0487,0.0487,0.0486,0.0486,0,0.0324,0.0347,0.0388,0.0456,0.0512,0.0577,0.0652,0.0702,0.0784,0.0856,0.0944,0.0972,0.0921,0.084,0.0721,0.065,0.0563,0.054,0.0574,0.0493,0.0485,0.0471,0.047,0.0484,0.0484,0.0484,0.0484,0.0484,0.0335,0.0362,0.0416,0.0482,0.0546,0.0626,0.0688,0.0777,0.0876,0.099,0.1011,0.1045,0.0949,0.0798,0.0683,0.0554,0.0574,0.05,0.05,0.0501,0.0501,0.0494,0.0493,0.0493,0.0493,0.0494,0.0494,0,0.0346,0.0382,0.044,0.052,0.0586,0.0624,0.0741,0.0809,0.0936,0.1025,0.1096,0.0986,0.0897,0.0772,0.059,0.0496,0.047,0.0439,0.0421,0.0424,0.0427,0.0422,0.0394,0.0393,0.0393,0.0392,0,0,0.0353,0.0401,0.043,0.0535,0.0596,0.0695,0.0767,0.088,0.0964,0.1044,0.106,0.1078,0.0935,0.0774,0.063,0.0514,0.0491,0.0482,0.0572,0.0572,0.0576,0.0472,0.047,0,0,0,0,0]}],[{"header":{"parameterUnit":"m.s-1","parameterCategory":2,"la1":30.2991,"la2":30.254,"lo1":-89.0895,"lo2":-89.0444,"dy":0.0017,"dx":0.0017,"nx":28,"ny":28,"refTime":"2024-07-03T21:00:00:Z","depth":"4","parameterNumber":2,"parameterNumberName":"U-component_of_CURRENTS"},"data":[0,0,0,0,0,0,0,0,0,0,0,0,0,0,0,0,0,0,0,0,0,0,0,0,0,0,0,0,0,0,0,0,0,0,0,0,0,0,0,0,0,0,0,0,0,0,0,0,0,0,0,0,0,0,0,0,0,0,0.0838,0.0838,0,0.0851,0.0851,0.0851,0.088,0.088,0.0881,0.0882,0.0919,0.092,0.092,0,0,0,0,0,0,0,0,0,0,0,0,0,0.0841,0.0841,0.0838,0.0838,0.0838,0.0851,0.0851,0.0851,0.0879,0.088,0.0881,0.0882,0.0919,0.092,0.092,0,0,0,0,0,0,0,0,0,0,0,0,0,0.0844,0.0841,0.0838,0.0855,0.0857,0.0851,0.0851,0.0851,0.0879,0.088,0.0881,0.0882,0.0919,0.092,0.092,0.0902,0,0,0.0922,0.0922,0,0,0,0,0,0,0,0,0.0844,0.0844,0.0852,0.0854,0.0856,0.0866,0.0866,0.087,0.0879,0.0869,0.0882,0.0883,0.0904,0.0906,0.0904,0.0904,0.0906,0.0922,0.0922,0.0922,0.0923,0,0,0,0,0,0,0,0.0844,0.0844,0.0842,0.0853,0.0855,0.0864,0.0865,0.0867,0.088,0.087,0.0873,0.0876,0.0905,0.0903,0.0905,0.0906,0.0922,0.0922,0.0923,0.0923,0.0969,0.097,0,0,0,0,0,0,0.0844,0.0843,0.0841,0.0842,0.0854,0.0863,0.0865,0.0861,0.0879,0.0883,0.0875,0.0877,0.0902,0.0904,0.0906,0.0954,0.0922,0.0923,0.0923,0.0968,0.097,0.0971,0,0,0,0,0,0,0.0843,0.0843,0.0841,0.0845,0.0845,0.0862,0.0857,0.086,0.0884,0.0883,0.0888,0.0899,0.0902,0.0906,0.093,0.0953,0.0923,0.0924,0.0967,0.0969,0.097,0.1006,0,0,0,0,0,0,0.0843,0.0842,0.0851,0.0844,0.0845,0.0854,0.0856,0.086,0.0884,0.0888,0.0905,0.0908,0.0904,0.0929,0.093,0.0953,0.0924,0.0966,0.0968,0.097,0.1003,0.1008,0.1012,0,0,0,0,0,0.0843,0.0845,0.0851,0.0852,0.0852,0.0855,0.0857,0.0871,0.0884,0.0896,0.091,0.0909,0.0941,0.093,0.0931,0.0955,0.0965,0.0967,0.0969,0.1001,0.1007,0.1012,0,0,0,0,0,0,0.0853,0.0848,0.0854,0.0856,0.0865,0.0861,0.0875,0.0884,0.0903,0.0916,0.0916,0.092,0.095,0.0947,0.0935,0.0974,0.0955,0.0957,0.0979,0.0984,0.0989,0.0997,0.0924,0,0,0,0,0,0.0858,0.0859,0.0858,0.0864,0.087,0.0878,0.0886,0.0897,0.0906,0.0917,0.093,0.0944,0.0954,0.0966,0.0973,0.0991,0.0994,0.1009,0.1014,0.1017,0.1026,0.1054,0.1062,0.0977,0.0977,0.0977,0,0,0.0864,0.0863,0.0864,0.0868,0.0876,0.0883,0.0886,0.0905,0.0918,0.0917,0.0949,0.096,0.0963,0.0985,0.0999,0.099,0.1041,0.102,0.1023,0.103,0.1057,0.1065,0.1072,0.0979,0.0979,0.0978,0,0,0.0869,0.0877,0.0879,0.0886,0.0903,0.0905,0.0917,0.0929,0.0946,0.0969,0.0975,0.1002,0.1018,0.1025,0.1029,0.1061,0.1063,0.1071,0.1102,0.1129,0.1136,0.1142,0.1148,0.1155,0.1074,0.1074,0.1074,0,0.0882,0.0878,0.0883,0.0889,0.0899,0.0918,0.0927,0.094,0.0963,0.0978,0.0988,0.1027,0.1034,0.1058,0.1076,0.1072,0.1085,0.108,0.1135,0.1141,0.1147,0.1152,0.1159,0.1076,0.1076,0.1075,0.1075,0,0.088,0.089,0.0895,0.0905,0.0917,0.0931,0.0946,0.0973,0.0998,0.101,0.1052,0.1066,0.1091,0.11,0.1101,0.1149,0.1143,0.1136,0.1121,0.1158,0.116,0.1166,0.1079,0.1078,0.1077,0.1077,0,0,0.0874,0.0889,0.0895,0.0903,0.0928,0.0934,0.0965,0.0989,0.1012,0.1049,0.108,0.1114,0.1136,0.1143,0.1154,0.1184,0.1237,0.119,0.119,0.1195,0.1293,0.1172,0.1167,0.1249,0.1251,0.1252,0.1274,0,0.0875,0.0884,0.0894,0.0914,0.0919,0.0949,0.0971,0.1001,0.1031,0.1067,0.1101,0.1135,0.1146,0.1172,0.1206,0.123,0.1258,0.1231,0.1258,0.1258,0.1146,0.1172,0.1257,0.1279,0.1281,0.1282,0.1282,0,0.0865,0.0873,0.0889,0.0914,0.0921,0.0942,0.0985,0.1009,0.1059,0.1086,0.1133,0.1159,0.1215,0.122,0.1285,0.1273,0.1294,0.1308,0.1309,0.119,0.1149,0.1237,0.1294,0.1293,0.1292,0.1292,0.1291,0,0.0843,0.0867,0.0881,0.089,0.0922,0.0949,0.0977,0.1022,0.1043,0.1111,0.1136,0.1195,0.1235,0.128,0.1316,0.1315,0.1375,0.1366,0.1272,0.1263,0.1351,0.1344,0.1415,0.1415,0.1415,0.1415,0.1415,0,0.0823,0.0837,0.0878,0.0884,0.091,0.0944,0.0977,0.1016,0.1066,0.1087,0.1153,0.1175,0.1261,0.1299,0.1327,0.1311,0.1383,0.1281,0.1264,0.1363,0.1357,0.1354,0.1347,0.1416,0.1416,0.1415,0.1415,0,0.079,0.0817,0.0835,0.088,0.0899,0.0922,0.0974,0.099,0.1052,0.1086,0.1113,0.1182,0.1226,0.1279,0.1343,0.1305,0.1312,0.1291,0.1385,0.1374,0.118,0.1174,0.1181,0.1177,0.1174,0.1171,0.1168,0,0.0769,0.0776,0.0828,0.0842,0.0868,0.0906,0.0923,0.0982,0.0993,0.107,0.1075,0.1145,0.1182,0.1171,0.1233,0.1253,0.1245,0.1229,0.1213,0.1174,0.1158,0.1158,0.1157,0.1163,0.1162,0.1161,0.116,0,0.0729,0.076,0.0777,0.0805,0.0832,0.084,0.0874,0.0871,0.0931,0.1002,0.1015,0.1035,0.107,0.1105,0.1126,0.1142,0.1226,0.1194,0.1201,0.1186,0.1152,0.114,0.1143,0.1148,0.115,0.1151,0.1152,0,0.0707,0.0709,0.0739,0.0756,0.0784,0.0765,0.0784,0.0793,0.0814,0.0902,0.0904,0.0981,0.1059,0.1045,0.1065,0.1065,0.105,0.1013,0.1029,0.1043,0.0984,0.092,0.0834,0,0,0,0,0,0.068,0.0672,0.0682,0.0685,0.0708,0.072,0.0744,0.0759,0.082,0.0805,0.0852,0.0883,0.0903,0.0938,0.0912,0.0988,0.1047,0.0949,0.101,0.1083,0.1097,0.1039,0,0,0,0,0,0,0.0658,0.0669,0.0661,0.0626,0.0616,0.0617,0.0628,0.0661,0.0651,0.0733,0.0755,0.0821,0.0863,0.0925,0.09,0.0908,0.0921,0.0999,0.0996,0.1075,0.1088,0.1099,0.1045,0,0,0,0,0]},{"header":{"parameterUnit":"m.s-1","parameterCategory":2,"la1":30.2991,"la2":30.254,"lo1":-89.0895,"lo2":-89.0444,"dy":0.0017,"dx":0.0017,"nx":28,"ny":28,"refTime":"2024-07-03T21:00:00:Z","depth":"4","parameterNumber":3,"parameterNumberName":"V-component_of_CURRENTS"},"data":[0,0,0,0,0,0,0,0,0,0,0,0,0,0,0,0,0,0,0,0,0,0,0,0,0,0,0,0,0,0,0,0,0,0,0,0,0,0,0,0,0,0,0,0,0,0,0,0,0,0,0,0,0,0,0,0,0,0,0.0044,0.0044,0,0.0047,0.0047,0.0047,0.0045,0.0045,0.0045,0.0045,0.0044,0.0044,0.0044,0,0,0,0,0,0,0,0,0,0,0,0,0,0.0027,0.0027,0.0044,0.0044,0.0044,0.0047,0.0047,0.0047,0.0045,0.0045,0.0045,0.0045,0.0044,0.0044,0.0044,0,0,0,0,0,0,0,0,0,0,0,0,0,0.0032,0.0027,0.0044,0.0044,0.0044,0.0047,0.0047,0.0047,0.0045,0.0045,0.0045,0.0045,0.0044,0.0044,0.0044,0.0044,0,0,0.0044,0.0044,0,0,0,0,0,0,0,0,0.0032,0.0033,0.0044,0.0044,0.0044,0.0046,0.004,0.0046,0.0045,0.0044,0.0045,0.0045,0.0045,0.0044,0.0044,0.0044,0.0044,0.0044,0.0044,0.0044,0.0044,0,0,0,0,0,0,0,0.0031,0.0032,0.0044,0.0044,0.0044,0.004,0.0041,0.0041,0.0044,0.0045,0.0045,0.0046,0.0045,0.0044,0.0044,0.0044,0.0044,0.0044,0.0044,0.0044,0.0051,0.0052,0,0,0,0,0,0,0.0033,0.0032,0.0044,0.0044,0.0038,0.0041,0.0042,0.0045,0.0044,0.0044,0.0046,0.0046,0.0045,0.0044,0.0044,0.0061,0.0044,0.0044,0.0044,0.0051,0.0052,0.0052,0,0,0,0,0,0,0.0032,0.0034,0.0044,0.0039,0.004,0.0041,0.0045,0.0045,0.0048,0.0045,0.0045,0.0049,0.0044,0.0044,0.0048,0.006,0.0044,0.0044,0.0051,0.0051,0.0052,0.0084,0,0,0,0,0,0,0.0032,0.0034,0.0036,0.0039,0.004,0.005,0.0045,0.0045,0.0049,0.0048,0.0048,0.0047,0.0044,0.0048,0.0048,0.006,0.0044,0.0051,0.0051,0.0052,0.0082,0.0085,0.0087,0,0,0,0,0,0.0031,0.0037,0.0037,0.0038,0.0044,0.005,0.005,0.0051,0.0049,0.0052,0.0051,0.0047,0.005,0.0048,0.0048,0.006,0.005,0.0051,0.0052,0.0081,0.0084,0.0087,0,0,0,0,0,0,0.003,0.0037,0.0037,0.0044,0.0048,0.005,0.0054,0.0053,0.0055,0.0055,0.0051,0.005,0.0056,0.0052,0.005,0.0062,0.005,0.005,0.0072,0.0075,0.0078,0.0088,0.0044,0,0,0,0,0,0.0031,0.0039,0.0043,0.0049,0.0051,0.0052,0.0055,0.0056,0.0058,0.0059,0.0059,0.0058,0.0058,0.0062,0.0059,0.0069,0.0067,0.0075,0.0078,0.008,0.0088,0.0093,0.0097,0.0053,0.0053,0.0053,0,0,0.0032,0.0038,0.0041,0.0049,0.0052,0.0061,0.0054,0.0061,0.007,0.0058,0.007,0.0065,0.006,0.0069,0.0072,0.007,0.0091,0.0081,0.0083,0.0089,0.0094,0.0098,0.0102,0.0054,0.0054,0.0054,0,0,0.0039,0.0042,0.0051,0.0058,0.0066,0.0069,0.0072,0.0077,0.008,0.0089,0.0082,0.0086,0.0087,0.009,0.009,0.0105,0.01,0.0102,0.0131,0.0136,0.014,0.0143,0.0146,0.0149,0.0109,0.0109,0.0109,0,0.004,0.0053,0.0054,0.0067,0.0075,0.0074,0.0087,0.0091,0.0097,0.0105,0.0097,0.0106,0.0099,0.0116,0.012,0.0113,0.0113,0.0121,0.014,0.0144,0.0147,0.0148,0.0152,0.0111,0.0111,0.0111,0.011,0,0.0055,0.0067,0.0073,0.009,0.0099,0.011,0.0118,0.0127,0.013,0.0135,0.0149,0.0142,0.0152,0.0147,0.0139,0.0159,0.0151,0.0139,0.0135,0.0153,0.0154,0.0157,0.0113,0.0113,0.0112,0.0112,0,0,0.0055,0.0079,0.0083,0.0097,0.0114,0.0125,0.0143,0.0161,0.0179,0.0181,0.0207,0.0201,0.0201,0.0201,0.0193,0.0197,0.0213,0.0181,0.0181,0.0189,0.0226,0.0211,0.0212,0.0206,0.0207,0.0207,0.0218,0,0.0067,0.0095,0.0105,0.0134,0.015,0.0161,0.018,0.0196,0.0207,0.0231,0.023,0.0247,0.0221,0.0232,0.0232,0.0219,0.0222,0.0211,0.0203,0.0203,0.0191,0.0216,0.0209,0.022,0.022,0.0221,0.0221,0,0.008,0.0099,0.0128,0.0163,0.0172,0.0191,0.0228,0.0246,0.0274,0.0284,0.0302,0.0301,0.0315,0.0287,0.0282,0.0277,0.0256,0.0241,0.0241,0.0219,0.0194,0.0197,0.0226,0.0226,0.0226,0.0225,0.0225,0,0.0082,0.0117,0.0143,0.0154,0.019,0.0212,0.0235,0.0265,0.0293,0.0326,0.0353,0.0357,0.0374,0.035,0.0319,0.0305,0.0309,0.0283,0.025,0.0249,0.0244,0.024,0.0279,0.0279,0.0279,0.0279,0.0279,0,0.0092,0.0114,0.0148,0.0164,0.0205,0.0226,0.0273,0.0295,0.0339,0.0384,0.0386,0.0418,0.0391,0.0389,0.0346,0.0314,0.0331,0.0264,0.0255,0.0256,0.0254,0.0246,0.0242,0.0279,0.0279,0.0279,0.0279,0,0.0089,0.011,0.0145,0.0189,0.0207,0.0238,0.0303,0.034,0.0376,0.0438,0.0456,0.0477,0.0474,0.044,0.0407,0.0357,0.032,0.0301,0.0316,0.0305,0.0248,0.0245,0.0267,0.0267,0.0267,0.0267,0.0266,0,0.009,0.0106,0.016,0.019,0.0213,0.0264,0.0305,0.0355,0.0401,0.0472,0.0508,0.0528,0.0531,0.0482,0.0428,0.0357,0.0332,0.0308,0.0266,0.026,0.0249,0.0247,0.0245,0.0266,0.0266,0.0266,0.0266,0,0.0094,0.0112,0.0143,0.0201,0.025,0.0305,0.037,0.0406,0.0474,0.0506,0.0559,0.0543,0.0541,0.0487,0.0439,0.0378,0.0321,0.0304,0.0304,0.0264,0.0259,0.0247,0.0245,0.0265,0.0265,0.0265,0.0265,0,0.0099,0.0119,0.0164,0.0218,0.0277,0.0341,0.0372,0.0438,0.0488,0.0564,0.0578,0.0577,0.0578,0.0499,0.0452,0.0398,0.0365,0.0321,0.0319,0.0319,0.032,0.032,0.0348,0,0,0,0,0,0.0107,0.0136,0.0182,0.0246,0.0304,0.0341,0.0418,0.0449,0.0512,0.0552,0.0569,0.0567,0.0512,0.0491,0.0434,0.0424,0.0343,0.0351,0.0288,0.0259,0.026,0.025,0,0,0,0,0,0,0.0115,0.0155,0.0181,0.0262,0.0306,0.0377,0.0426,0.0468,0.0493,0.0541,0.0517,0.0524,0.0472,0.0543,0.0424,0.041,0.0354,0.0334,0.0332,0.0259,0.026,0.0261,0.025,0,0,0,0,0]}]]